Airfield :
LOGIN :

Register | Disclaimer

   EN    FR    IT 

 










Legend :    VFR   Marginal VFR   IFR   Intensive IFR   Very Intensive IFR
Visi :
Ceiling :
>= 8 km
>= 3000ft
5 to 8 km
1000 to 3000 ft
1500m to 5 km
500 to 1000 ft
800 to 1500m
200 to 500 ft
< 800m
< 200 ft
Symbols :   Thunderstorms  Fog  Heavy snow  Heavy precipitations  Wind > 20 kt
SIGMETs :     Misc.  Thunderstorms  Icing  Turbulence  Mountain Waves  Volcanic Ashes






- Airport Elevation : 545 ft
- IATA code : PZY


LZPP - Piešťany

CURRENT METAR :
  • 212330Z AUTO VRB02KT 9999 NCD 09/04 Q1012

EXPIRED METARs :
  • 212300Z AUTO 21006KT 9999 09/04 Q1012
  • 212230Z AUTO 22004KT 9999 NCD 10/04 Q1012
  • 212200Z AUTO 21005KT 9999 12/04 Q1012
  • 212130Z AUTO 23007KT 9999 12/04 Q1012
  • 212100Z AUTO 23005KT 9999 13/05 Q1012

TAF COR TAF LZPP
Valid from the 21 at 18:00 until the 22 at 03:00 UTC


211709Z 2118/2203 24006KT CAVOK
BECMG 2119/2121 22005KT



MET'MAP, your aeronautical weather chart ! - Copyright ORBIFLY December 2007 - Disclaimer

ORBIFLY MET'MAP TEAM :

Programming & Development : Alexandra Zaïnal
Concept & original design : Baudouin d'Aumeries
Assistance for programming : Marc-Olivier Méhu
Technical & hardware support : Manuel Goepfert

Contact : metmap@orbifly.com




SOURCES & CREDITS :

   NOAA